Location: Suhl
(50.5693°N, 10.6787°E)
Time: 05:03:31
(UTC+01:00)

ISS - Visible Passes

Search period start: 16 November 2018 00:00
Search period end: 26 November 2018 00:00
Orbit: 402 x 408 km, 51.6° (Epoch: 16 November)

Date Brightness Start Highest point End Pass type
(mag) Time Alt. Az. Time Alt. Az. Time Alt. Az.
24 Nov -1.2 18:33:28 10° S 18:34:00 12° S 18:34:00 12° S visible
25 Nov -1.3 17:43:27 10° SE 17:43:41 10° SE 17:43:56 10° SE visible
25 Nov -0.8 19:16:24 10° SW 19:16:50 13° SW 19:16:50 13° SW visible
